{"data":{"norad_id":61901,"epoch":"2026-09-22T22:31:57.744192Z","epoch_age_seconds":91438,"freshness":"FRESH","line1":"1 61901U 24205H   26265.93886278  .00009387  00000+0  28850-3 0  9994","line2":"2 61901  97.4042 344.0859 0010305  55.8524 304.3695 15.33865004103690","mean_motion":15.33865004,"eccentricity":0.0010305,"inclination_deg":97.4042,"raan_deg":344.0859,"arg_perigee_deg":55.8524,"mean_anomaly_deg":304.3695,"bstar":0.0002885,"rev_number":10369,"period_min":93.880491193474,"perigee_km":457.24269826436,"apogee_km":471.34494819104,"semimajor_km":6842.4308232277,"source":"CELESTRAK","updated_at":"2026-09-23T09:00:21.098667Z"}}